Location: Little Italy
(37.8008°N, 122.4108°W)
Time: 02:07:18
(UTC+00:00)

CZ-4B DEB - Visible Passes

Search period start: 27 February 2021 00:00
Search period end: 09 March 2021 00:00
Orbit: 841 x 861 km, 99.1° (Epoch: 26 February)

Date Brightness Start Highest point End Pass type
(mag) Time Alt. Az. Time Alt. Az. Time Alt. Az.
27 Feb 5.1 13:53:22 10° NNE 13:58:45 53° E 14:04:04 10° S visible
28 Feb 8.0 03:02:58 10° WSW 03:04:27 11° W 03:05:56 10° WNW visible
28 Feb 5.7 13:41:45 10° NNE 13:46:56 41° E 13:52:03 10° S visible
01 Mar 7.6 02:49:31 10° SW 02:52:33 15° W 02:55:36 10° WNW visible
01 Mar 6.2 13:30:14 10° NE 13:35:07 32° E 13:39:56 10° SSE visible
02 Mar 7.4 02:36:46 10° SW 02:40:40 19° W 02:44:35 10° NW visible
02 Mar 6.6 13:18:49 10° NE 13:23:16 25° E 13:27:41 10° SSE visible
03 Mar 7.0 02:24:19 10° SSW 02:28:48 25° W 02:33:18 10° NW visible
03 Mar 7.0 13:07:32 10° NE 13:11:24 19° E 13:15:14 10° SE visible
04 Mar 7.3 12:56:32 10° ENE 12:59:31 15° E 13:02:29 10° SE visible
05 Mar 7.5 12:46:13 10° ENE 12:47:36 11° E 12:48:59 10° ESE visible
07 Mar 4.9 13:59:54 10° NNE 14:05:20 60° ESE 14:10:42 10° S visible
08 Mar 5.5 13:48:16 10° NNE 13:53:32 47° E 13:58:45 10° S visible
